Weather Roundup
Issued by NWS

Home | Current Version | Previous Version | Text Only | Print | Product List | Glossary On
Versions: 1 2 3 4 5 6 7 8 9 10 11 12 13 14 15 16 17 18 19 20 21 22 23 24 25 26 27 28 29 30 31 32 33 34 35 36 37 38 39 40 41 42 43 44 45 46 47 48 49 50
174
NZUS93 KARX 251110
HRRWXR

CURRENT HOURLY OBSERVATIONS ACROSS
MUCH OF THE UPPER MISSISSIPPI VALLEY
NATIONAL WEATHER SERVICE LA CROSSE WI
600 AM CDT TUE APR 25 2017


...SOUTHEAST MINNESOTA...


CITY           SKY/WX    TMP DP  RH WIND       PRES   REMARKS
ROCHESTER      CLOUDY    56  36  47 S13       29.53F
ROCHESTER/MAYO CLOUDY    58  34  40 SE10      29.53F
WINONA         CLOUDY    59  36  41 E5        29.55S
AUSTIN         CLOUDY    54  36  50 SE5       29.52F
ALBERT LEA     CLEAR     52  36  54 SE6       29.50F
DODGE CENTER   CLOUDY    54  36  50 SE8       29.52S
PRESTON        CLOUDY    55  33  44 S6        29.55S
OWATONNA       PTCLDY    57  36  44 S12       29.50S
FARIBAULT      CLOUDY    57  37  47 S6        29.50S
$$

...ELSEWHERE IN MINNESOTA...


CITY           SKY/WX    TMP DP  RH WIND       PRES   REMARKS
MINNEAPOLIS    MOCLDY    58  36  43 SE8       29.49S
INTNL FALLS    CLOUDY    35  33  92 NE9       29.65R WCI  28
DULUTH         CLOUDY    40  38  93 SE6       29.57S
RED WING       CLOUDY    61  32  33 SE7       29.51S
REDWOOD FALLS  CLOUDY    39  37  92 NW12G18   29.55R FOG     WCI  32
MANKATO        CLOUDY    43  42  97 NW12      29.53R
WORTHINGTON    CLOUDY    38  38 100 NW15      29.55S FOG     WCI  29
FAIRMONT       CLOUDY    43  41  93 NW15      29.53S
$$

...SOUTHWEST WISCONSIN...


CITY           SKY/WX    TMP DP  RH WIND       PRES   REMARKS
LA CROSSE      CLOUDY    60  34  37 SE8       29.56F
PRAIRIE DU CHI CLOUDY    55  32  43 E8        29.58F
BOSCOBEL       CLEAR     53  35  50 CALM      29.60F
LONE ROCK      MOCLDY    51  38  60 E7        29.62S
PLATTEVILLE    CLEAR     51  37  58 SE9       29.62S
FORT MC COY    MOCLDY    58  34  41 S8        29.60S
CAMP DOUGLAS   MOCLDY    51  37  58 SE8       29.61F
MAUSTON-NEW LI PTSUNNY   52  38  58 SE3       29.61S
VIROQUA        FAIR      51  34  52 SE10      29.59F
WIS DELLS      CLOUDY    55  36  50 S10       29.63S
$$

...ELSEWHERE IN WISCONSIN...


CITY           SKY/WX    TMP DP  RH WIND       PRES   REMARKS
MILWAUKEE      CLOUDY    53  42  66 SE10      29.71S
MADISON        CLOUDY    55  39  54 S8        29.65F
GREEN BAY      CLEAR     51  40  65 S10       29.70F
EAU CLAIRE     CLOUDY    58  31  35 S12       29.54S
BLACK RVR FLS  FAIR      41  34  76 CALM      29.58S
MEDFORD        PTCLDY    52  33  49 SE8       29.61S
WAUSAU         PTCLDY    50  34  54 E8        29.63F
WIS RAPIDS     MOCLDY    55  36  48 SE8       29.64S
MARSHFIELD     CLOUDY    54  34  46 SE9       29.61F
RICE LAKE      CLOUDY    58  32  38 SE9       29.55F
$$

...NORTHEAST IOWA...


CITY           SKY/WX    TMP DP  RH WIND       PRES   REMARKS
WATERLOO       PTCLDY    54  36  50 S8        29.54F
DUBUQUE        CLEAR     52  34  50 S10       29.61S
DECORAH        CLOUDY    54  36  50 SE8       29.55F
MASON CITY     CLEAR     49  37  63 SE7       29.53S
CHARLES CITY   PTCLDY    54  34  47 SE9       29.54S
OELWEIN        PTCLDY    50  37  62 SE9       29.57S
$$

...ELSEWHERE IN IOWA...


CITY           SKY/WX    TMP DP  RH WIND       PRES   REMARKS
DES MOINES     MOCLDY    57  39  51 SE8       29.52S
IOWA CITY      CLOUDY    52  37  56 CALM      29.60S
FORT DODGE     CLEAR     52  36  54 CALM      29.50F
MARSHALLTOWN   CLEAR     53  37  54 SE7       29.52F
CEDAR RAPIDS   CLEAR     53  38  56 S7        29.57S
$$

...NORTHERN ILLINOIS...


CITY           SKY/WX    TMP DP  RH WIND       PRES   REMARKS
CHICAGO-OHARE  MOCLDY    56  47  71 SE10      29.70S
CHICAGO-MIDWAY CLOUDY    57  48  72 SE8       29.72R
MOLINE         CLEAR     52  36  54 SE6       29.61F
ROCKFORD       CLOUDY    52  41  66 S7        29.69F
PEORIA         CLOUDY    54  38  54 S6        29.67S
$$

NOTE: "FAIR" INDICATES FEW OR NO CLOUDS BELOW 12,000 FEET WITH NO
SIGNIFICANT WEATHER AND/OR OBSTRUCTIONS TO VISIBILITY. WIND
SPEEDS ARE IN MILES-PER-HOUR.




USA.gov is the U.S. government's official web portal to all federal, state and local government web resources and services.